Change the Weather History Date:

Wednesday, April 10, 2013

  Actual Average Record
Temperature  
Mean Temperature 76 °F 61 °F  
Max Temperature 84 °F 72 °F 89 °F (1943)
Min Temperature 68 °F 51 °F 32 °F (1982)
Degree Days  
Heating Degree Days 0 6  
Month to date heating degree days 78 67  
Since 1 July heating degree days 2782 2875  
Cooling Degree Days 11 2  
Month to date cooling degree days 27 18  
Year to date cooling degree days 38 38  
Growing Degree Days 28 (Base 50)    
Moisture  
Dew Point 64 °F    
Average Humidity 63    
Maximum Humidity 79    
Minimum Humidity 47    
Precipitation  
Precipitation 0.69 in 0.19 in 1.08 in (1947)
Month to date precipitation 1.18 1.75  
Year to date precipitation 18.13 15.28  
Snow  
Snow 0.00 in 0.00 in - ()
Month to date snowfall 0.0 0.0  
Since 1 July snowfall 0.9 3.8  
Snow Depth 0.00 in    
Sea Level Pressure  
Sea Level Pressure 29.85 in    
Wind  
Wind Speed 15 mph (South)    
Max Wind Speed 24 mph    
Max Gust Speed 33 mph    
Visibility 10 miles    
Events Rain , Thunderstorm    
T = Trace of Precipitation, MM = Missing Value Source: NWS Daily Summary

Daily Weather History Graph

Daily Weather History Graph

Search for Another Location

Airport or City:

Trip Planner

Search our weather history database for the weather conditions in past years. The results will help you decide how hot, cold, wet, or windy it might be!

Date:

Astronomy

Apr. 10, 2013 Rise Set
Actual Time 6:34 AM CDT 7:28 PM CDT
Civil Twilight 6:08 AM CDT 7:54 PM CDT
Nautical Twilight 5:37 AM CDT 8:25 PM CDT
Astronomical Twilight 5:06 AM CDT 8:56 PM CDT
Moon 6:31 AM CDT (4/10) 8:02 PM CDT (4/10)
Length of Visible Light 13h 46m
Length of Day
12h 54m
New Moon, 0% of the Moon is Illuminated
Apr 10
New Moon
Apr 18
First Quarter
Apr 25
Full
May 2
Last Quarter
May 9
New

Hourly Weather History & Observations

Time (CDT) Temp. Heat Index Dew Point Humidity Pressure Visibility Wind Dir Wind Speed Gust Speed Precip Events Conditions
12:54 AM 73.9 °F - 64.0 °F 71% 29.92 in 10.0 mi South 11.5 mph - N/A   Scattered Clouds
12:58 AM 75.2 °F - 64.4 °F 69% 29.93 in 10.0 mi SSE 11.5 mph - N/A   Mostly Cloudy
1:52 AM 73.4 °F - 64.4 °F 73% 29.92 in 10.0 mi South 13.8 mph 23.0 mph N/A   Scattered Clouds
1:54 AM 73.9 °F - 64.0 °F 71% 29.91 in 10.0 mi South 15.0 mph 23.0 mph N/A   Scattered Clouds
1:59 AM 73.4 °F - 64.4 °F 73% 29.92 in 10.0 mi South 15.0 mph 20.7 mph N/A   Mostly Cloudy
2:15 AM 73.4 °F - 64.4 °F 73% 29.92 in 10.0 mi South 15.0 mph - N/A   Overcast
2:54 AM 73.9 °F - 64.9 °F 73% 29.89 in 10.0 mi South 12.7 mph 24.2 mph N/A   Mostly Cloudy
3:54 AM 73.0 °F - 64.9 °F 76% 29.89 in 10.0 mi South 12.7 mph - N/A   Mostly Cloudy
4:54 AM 72.0 °F - 64.9 °F 78% 29.88 in 10.0 mi South 12.7 mph - N/A   Mostly Cloudy
5:54 AM 71.1 °F - 64.9 °F 81% 29.89 in 10.0 mi South 10.4 mph - N/A   Scattered Clouds
6:54 AM 72.0 °F - 64.9 °F 78% 29.90 in 10.0 mi SSE 9.2 mph - N/A   Mostly Cloudy
7:54 AM 73.0 °F - 64.9 °F 76% 29.92 in 10.0 mi South 10.4 mph - N/A   Mostly Cloudy
8:54 AM 73.9 °F - 64.9 °F 73% 29.93 in 10.0 mi South 12.7 mph - N/A   Mostly Cloudy
9:54 AM 73.9 °F - 64.9 °F 73% 29.95 in 10.0 mi South 15.0 mph - N/A   Overcast
10:54 AM 78.1 °F - 66.0 °F 66% 29.95 in 10.0 mi South 17.3 mph 25.3 mph N/A   Mostly Cloudy
11:54 AM 80.6 °F 82.3 °F 64.4 °F 58% 29.94 in 10.0 mi South 18.4 mph - N/A   Mostly Cloudy
12:54 PM 78.8 °F - 64.4 °F 61% 29.92 in 10.0 mi South 18.4 mph - N/A   Overcast
1:54 PM 82.9 °F 84.6 °F 64.9 °F 54% 29.88 in 10.0 mi SSE 17.3 mph 26.5 mph N/A   Mostly Cloudy
2:54 PM 82.9 °F 84.4 °F 64.0 °F 53% 29.85 in 10.0 mi South 19.6 mph 26.5 mph N/A   Mostly Cloudy
3:54 PM 82.0 °F 83.1 °F 63.0 °F 52% 29.81 in 10.0 mi South 19.6 mph 31.1 mph N/A   Mostly Cloudy
4:54 PM 82.0 °F 82.7 °F 61.0 °F 49% 29.77 in 10.0 mi South 19.6 mph 26.5 mph N/A   Overcast
5:54 PM 82.0 °F 82.7 °F 61.0 °F 49% 29.73 in 10.0 mi SSE 16.1 mph 28.8 mph N/A   Overcast
6:54 PM 80.1 °F 81.1 °F 61.0 °F 52% 29.68 in 10.0 mi SSE 17.3 mph 24.2 mph N/A   Overcast
7:54 PM 80.1 °F 81.1 °F 61.0 °F 52% 29.70 in 10.0 mi South 18.4 mph 24.2 mph N/A   Overcast
8:54 PM 79.0 °F - 61.0 °F 54% 29.71 in 10.0 mi SSE 12.7 mph 20.7 mph N/A   Overcast
9:25 PM 78.8 °F - 62.6 °F 57% 29.71 in 10.0 mi SSE 13.8 mph 21.9 mph 0.00 in Rain , Thunderstorm Light Thunderstorms and Rain
9:54 PM 78.1 °F - 62.1 °F 58% 29.70 in 10.0 mi SSE 16.1 mph 24.2 mph 0.00 in Rain , Thunderstorm Light Thunderstorms and Rain
10:54 PM 73.9 °F - 64.9 °F 73% 29.71 in 7.0 mi South 17.3 mph 24.2 mph 0.01 in Rain , Thunderstorm Light Thunderstorms and Rain
11:54 PM 72.0 °F - 64.9 °F 78% 29.71 in 9.0 mi South 15.0 mph 21.9 mph 0.07 in Rain , Thunderstorm Light Thunderstorms and Rain